Wetbulb
55.48 55.33 54.71 53.94 52.30 51.29 50.54 45.11 37.31 49.90 49.05 36.37 36.19 32.94 36.12 40.22 38.74 40.90 38.44 38.46 37.36 35.93 36.21 34.24 34.25 33.82 37.29 40.74 38.72 33.21 35.57 30.52 25.06 29.70 36.27 37.42 35.28 33.22 32.97 25.55 25.80 26.70 26.61 24.76
55.14 54.74 53.38 53.20 51.81 51.48 47.48 41.14 42.45 49.18 46.56 32.53 31.87 36.05 36.64 37.75 36.96 37.87 37.45 36.55 39.14 39.20 35.07 31.73 34.89 36.09 40.77 40.60 38.51 35.17 35.71 28.44 22.48 26.19 30.19 33.18 30.49 32.41 32.63 32.00 30.00 25.56 21.29 22.83
54.84 53.84 53.42 52.19 51.26 51.71 47.78 40.99 32.89 40.34 42.06 40.61 35.13 33.78 33.76 33.48 39.55 37.91 38.44 36.96 38.41 36.03 33.43 36.28 32.00 34.57 39.20 40.50 39.50 42.42 39.06 29.82 26.83 22.20 26.71 30.30 28.36 31.33 32.49 30.08 24.91 25.53 25.75 27.34
54.33 53.51 52.74 51.30 51.07 50.81 46.35 39.96 34.52 37.83 31.84 34.97 35.36 35.78 34.50 32.63 32.64 37.26 38.79 34.33 35.60 34.82 30.94 31.97 31.53 35.02 35.87 38.16 40.73 38.87 35.72 28.84 30.80 31.20 32.35 32.43 30.90 30.13 30.68 28.91 29.53 25.30 28.40 29.31
53.28 52.69 51.40 50.63 50.71 49.91 42.65 34.85 36.22 39.28 36.68 38.62 35.60 35.17 33.54 34.76 34.21 35.75 34.69 34.16 36.38 36.62 32.28 32.96 30.09 34.09 33.38 32.14 36.01 34.99 36.08 28.72 30.70 28.39 32.33 32.20 29.51 31.58 31.30 31.31 31.22 30.49 30.89 30.03
51.75 51.10 50.48 50.39 50.04 48.16 41.26 41.54 41.94 38.85 36.25 34.60 32.88 32.68 34.84 33.90 35.96 37.03 37.79 36.65 35.33 34.24 35.89 37.70 37.30 37.31 36.79 36.21 34.38 33.20 33.45 30.98 28.52 24.56 30.75 30.80 25.74 29.39 30.36 31.10 32.30 31.29 26.93 31.98
50.78 50.46 50.08 50.11 49.74 46.75 43.16 41.89 40.96 35.16 30.87 33.57 33.39 35.41 35.90 35.39 36.34 34.70 37.48 38.30 36.05 38.48 41.29 39.88 38.35 37.13 36.64 36.27 35.70 36.14 32.05 30.97 29.59 25.55 27.89 19.01 28.64 34.08 33.42 30.71 32.21 32.95 33.85 34.73
50.27 49.97 49.50 49.30 48.14 47.37 44.64 42.90 41.01 36.32 31.22 34.48 34.88 35.85 35.39 35.66 36.40 35.54 35.82 37.70 40.08 40.65 37.62 31.62 28.92 27.39 29.28 31.31 34.07 34.12 35.13 31.30 27.73 24.25 24.28 26.83 28.10 30.91 29.61 28.83 28.83 33.71 33.80 36.53
48.69 49.02 49.04 48.41 48.48 47.86 44.99 43.10 43.67 39.06 33.55 32.25 36.79 34.49 34.63 31.26 30.34 31.86 34.08 39.27 41.53 40.15 35.30 30.32 24.30 21.95 25.00 24.12 27.11 33.89 33.82 33.33 28.67 25.77 20.50 16.70 26.24 34.07 37.83 37.42 26.14 35.73 36.33 35.78
48.45 48.02 48.15 48.13 48.12 47.93 45.40 42.72 43.54 39.16 32.92 35.76 36.95 32.73 32.05 34.53 32.39 29.31 31.79 33.32 35.17 37.08 30.95 24.59 23.51 22.74 27.94 22.02 22.78 23.85 25.89 26.97 25.16 24.61 22.40 22.94 33.19 35.80 38.81 25.69 27.74 36.50 37.35 36.99
48.07 47.69 47.32 47.30 47.31 47.01 44.13 41.04 41.77 38.44 33.12 34.89 37.68 37.63 34.02 34.15 32.34 27.36 31.01 28.93 29.75 30.04 22.91 23.89 22.73 23.52 25.83 25.65 26.72 25.72 23.56 21.33 21.26 24.48 20.74 18.08 33.77 34.75 30.23 34.22 38.05 38.76 37.89 38.51
46.69 46.64 46.58 45.91 46.46 46.77 44.27 38.66 41.94 40.38 34.55 33.68 36.52 37.68 38.68 37.63 36.62 31.73 31.51 28.61 29.51 31.59 22.88 23.35 22.66 24.39 23.68 24.28 20.08 29.46 23.71 29.34 25.27 26.14 22.50 32.02 35.76 33.47 36.02 38.29 38.08 38.30 37.43 38.52
45.08 45.22 45.34 45.72 45.69 44.82 41.95 37.69 36.98 35.89 31.38 30.39 31.60 31.51 35.79 38.67 37.94 37.35 29.42 28.86 32.73 30.97 31.60 28.04 28.77 24.40 26.21 20.09 21.87 25.10 28.64 34.48 27.61 26.73 29.65 32.57 34.22 37.01 38.92 39.98 39.27 40.95 40.40 39.82
44.66 44.65 44.92 45.44 45.70 44.80 41.95 36.18 36.16 35.15 31.28 23.82 27.01 36.90 33.96 38.18 37.39 35.76 34.78 32.87 33.10 32.78 30.50 23.34 21.03 21.33 29.29 23.19 24.79 23.89 25.85 29.65 28.19 27.35 29.76 32.24 34.32 36.37 37.49 39.00 40.68 40.84 41.39 40.92
44.37 44.41 44.79 45.08 44.44 42.80 38.74 36.35 36.19 36.12 30.31 23.82 26.26 31.43 33.79 35.23 35.71 35.20 34.61 32.87 30.32 28.11 22.78 19.99 23.55 26.26 25.91 27.01 26.24 24.26 27.89 27.02 24.54 22.57 29.66 30.16 30.85 35.81 36.98 36.50 35.72 36.65 36.64 37.95
44.22 44.15 44.25 43.77 42.91 39.79 33.35 28.78 35.65 37.38 34.14 25.88 19.11 28.66 30.20 32.34 32.59 32.45 33.06 32.88 30.19 29.17 24.87 22.96 26.76 29.79 26.64 20.72 20.20 26.34 29.26 31.64 32.17 28.64 33.33 33.21 34.15 36.21 37.35 35.87 36.29 37.60 37.41 37.97
43.36 43.17 43.66 43.37 42.10 35.56 29.87 28.04 34.12 38.74 34.34 24.49 19.94 22.04 29.24 32.34 31.44 29.60 29.03 31.54 30.27 29.08 26.16 23.41 26.18 27.02 29.57 24.16 22.49 28.99 31.49 33.52 33.84 34.62 34.12 31.16 33.31 31.97 35.76 36.92 37.76 38.81 38.48 38.62
42.94 42.91 42.64 42.01 41.08 37.79 32.74 34.22 40.90 36.86 31.12 28.92 20.27 21.93 24.08 30.27 25.19 24.66 28.91 26.93 27.47 27.38 26.09 26.38 25.73 28.29 28.17 24.27 27.87 29.83 30.96 32.09 32.68 33.30 34.45 33.79 35.41 36.04 35.46 38.12 38.77 37.49 35.95 36.40
42.26 41.38 40.28 34.86 32.00 28.90 32.35 42.14 39.57 35.26 28.42 18.17 21.89 19.80 16.31 29.05 26.84 27.92 26.77 28.70 19.29 28.95 23.21 24.99 28.76 27.19 22.90 27.15 28.17 29.06 30.71 30.72 31.86 34.26 34.71 35.33 35.60 37.07 37.82 38.12 38.14 36.25 35.86 36.93
40.23 34.42 27.71 20.66 31.07 40.08 37.78 30.06 26.48 25.05 24.88 27.09 23.84 23.85 20.48 24.41 21.62 19.79 18.91 24.07 24.52 22.15 24.68 28.82 27.12 24.55 29.86 31.06 32.25 32.58 34.14 35.73 34.54 31.80 31.61 32.66 33.49 33.27 33.54 34.17 34.05 34.93 35.53 35.50
31.34 25.61 24.00 32.33 39.54 31.03 24.81 16.92 16.27 18.52 20.13 23.19 25.14 24.27 20.79 26.37 17.27 18.19 22.09 16.39 21.29 19.39 21.81 21.49 19.31 23.66 31.09 35.31 35.13 34.66 34.91 34.80 34.48 34.84 34.78 34.44 33.76 32.78 31.32 32.76 33.87 33.90 34.66 35.20
32.71 33.88 34.81 31.49 25.30 20.77 17.45 16.79 23.27 20.65 20.81 23.67 22.80 24.71 28.40 29.69 31.35 25.34 19.20 17.36 18.89 16.74 24.76 22.61 20.13 28.72 33.22 34.91 33.73 32.86 32.15 31.61 31.62 31.69 31.27 31.44 31.04 30.40 30.61 31.67 31.68 32.29 32.82 31.96
33.60 27.61 20.29 20.02 22.72 14.54 12.36 8.13 18.82 15.75 22.58 23.51 23.74 23.22 28.23 29.59 31.49 27.69 21.57 18.13 18.20 23.30 21.77 20.40 27.39 31.23 32.28 33.43 33.67 33.36 31.65 31.63 31.16 30.09 30.17 30.23 30.09 29.86 29.49 29.41 30.84 30.56 31.10 30.96
22.59 17.60 14.10 10.53 11.68 16.92 19.23 20.89 21.48 25.09 27.45 28.58 28.73 27.33 27.04 26.68 25.57 26.50 21.94 24.35 25.01 16.70 10.41 21.79 28.54 30.82 32.51 33.16 33.92 32.54 31.56 30.72 30.02 29.67 29.24 28.18 26.58 27.40 28.01 28.40 28.36 28.71 28.73 29.67
21.18 19.31 9.03 16.01 19.70 20.32 19.72 21.78 23.83 29.25 29.67 29.11 27.83 28.02 28.29 25.17 24.56 26.23 25.61 19.76 18.18 21.06 21.92 27.44 29.28 30.45 31.27 31.07 31.20 31.44 31.02 30.66 29.59 30.33 29.03 27.77 27.87 27.69 27.58 27.91 27.80 27.94 26.19 25.59
24.93 23.87 16.82 18.17 15.21 13.38 12.91 14.38 20.43 28.59 29.12 32.06 30.46 23.43 24.26 21.68 22.74 21.05 18.56 21.02 18.06 22.48 27.22 28.50 28.63 28.28 28.08 28.88 29.26 29.19 29.59 31.24 30.86 30.60 29.68 29.21 28.11 27.30 28.02 27.18 25.61 27.05 27.48 23.91
25.43 17.58 18.92 15.65 14.72 15.63 15.53 18.88 23.53 31.49 31.56 22.56 27.80 22.69 23.78 27.76 24.07 23.25 26.49 20.63 23.57 25.73 27.54 28.08 26.87 27.19 28.97 29.73 30.37 29.21 30.25 29.58 27.22 30.33 29.53 29.27 27.12 25.66 27.51 25.51 25.76 26.26 25.82 25.14
MSLP
1005.00 1006.18 1006.82 1008.23 1009.73 1010.83 1012.26 1013.37 1014.31 1014.29 1014.72 1016.26 1016.44 1015.91 1015.71 1014.89 1014.58 1014.94 1014.46 1014.40 1014.05 1013.72 1013.71 1013.67 1013.57 1013.21 1013.01 1012.89 1013.15 1013.50 1013.71 1013.49 1012.93 1012.08 1011.46 1011.18 1011.32 1011.52 1012.11 1012.97 1012.99 1012.84 1012.55 1011.00
1004.08 1004.89 1006.01 1007.11 1008.58 1008.99 1011.19 1012.94 1013.94 1014.12 1013.82 1015.34 1015.70 1015.99 1015.37 1015.17 1015.01 1014.84 1014.85 1014.76 1014.39 1014.20 1014.17 1014.27 1013.72 1013.51 1013.09 1013.34 1013.72 1014.07 1014.19 1014.40 1014.07 1012.62 1012.52 1012.06 1011.98 1012.18 1012.56 1013.21 1013.40 1013.34 1013.32 1011.64
1002.73 1003.74 1004.77 1005.94 1007.24 1007.70 1008.33 1012.07 1014.06 1014.07 1014.44 1014.10 1014.64 1015.11 1015.07 1015.42 1015.16 1015.18 1015.28 1014.90 1014.79 1015.18 1014.89 1014.39 1013.94 1013.95 1013.78 1013.83 1014.04 1014.24 1014.51 1014.97 1015.41 1014.48 1013.89 1013.89 1013.24 1012.66 1012.99 1013.55 1013.47 1013.37 1012.87 1012.35
1001.41 1002.51 1003.84 1004.86 1006.16 1006.91 1007.08 1010.28 1011.60 1011.46 1012.70 1013.46 1013.79 1013.98 1014.95 1015.06 1015.23 1015.40 1015.30 1015.25 1015.08 1015.12 1015.37 1014.80 1014.37 1014.31 1014.21 1014.45 1014.45 1014.42 1014.71 1014.76 1015.35 1014.20 1013.88 1013.61 1013.02 1012.32 1013.09 1013.22 1012.66 1012.67 1011.98 1011.44
999.46 1001.17 1002.19 1004.12 1005.79 1006.27 1007.17 1009.09 1009.99 1010.94 1011.50 1012.48 1013.24 1013.70 1014.18 1014.87 1015.03 1015.26 1014.87 1014.97 1014.83 1015.35 1015.52 1015.35 1015.15 1015.00 1015.00 1014.78 1014.82 1014.92 1014.82 1014.60 1015.08 1013.93 1014.21 1013.60 1012.67 1012.25 1012.67 1012.30 1012.02 1011.34 1011.03 1010.30
998.84 1000.39 1001.92 1003.72 1005.13 1005.70 1007.27 1008.44 1008.90 1009.22 1011.61 1011.98 1012.67 1012.98 1013.72 1014.24 1014.90 1014.73 1014.66 1014.92 1015.11 1015.41 1015.63 1015.73 1015.37 1015.43 1015.23 1015.01 1015.22 1015.24 1015.24 1015.43 1015.60 1014.00 1014.00 1013.62 1012.39 1011.88 1011.53 1011.22 1010.74 1010.67 1010.24 1009.36
998.92 1000.39 1002.10 1003.57 1004.95 1005.90 1006.70 1007.52 1008.26 1009.72 1011.00 1011.96 1012.45 1013.25 1013.65 1014.44 1014.89 1014.67 1014.80 1015.21 1015.49 1015.79 1015.95 1015.99 1015.67 1015.55 1015.49 1015.19 1014.79 1014.94 1014.82 1015.22 1015.58 1014.50 1014.31 1012.90 1011.05 1010.53 1010.35 1010.52 1009.92 1009.87 1009.69 1009.06
999.82 1001.95 1003.00 1004.33 1005.70 1006.85 1007.64 1008.36 1008.84 1010.39 1011.17 1011.95 1012.48 1013.25 1014.12 1014.53 1015.09 1015.30 1015.22 1015.37 1015.44 1015.70 1016.25 1016.71 1016.46 1016.14 1015.62 1014.12 1013.63 1013.63 1013.77 1014.66 1014.92 1014.43 1013.50 1012.29 1011.08 1010.35 1010.00 1010.13 1009.44 1009.40 1009.08 1008.95
1000.97 1002.74 1003.89 1005.52 1006.62 1006.99 1007.87 1009.03 1009.42 1010.66 1011.51 1011.82 1012.05 1013.24 1014.18 1014.57 1015.11 1015.73 1015.39 1015.35 1015.83 1016.42 1016.87 1017.30 1016.95 1016.75 1016.10 1014.84 1013.63 1012.98 1013.36 1013.93 1014.73 1014.49 1013.40 1012.66 1010.95 1010.57 1010.31 1010.19 1010.00 1009.85 1009.59 1009.37
1001.95 1003.18 1004.65 1005.99 1006.64 1007.30 1007.93 1009.68 1009.98 1010.79 1011.81 1012.02 1012.19 1012.73 1013.74 1014.22 1014.82 1015.35 1015.50 1015.94 1016.63 1016.58 1017.41 1017.82 1017.55 1017.11 1016.24 1015.64 1014.44 1013.73 1013.78 1014.13 1013.95 1013.93 1013.79 1012.94 1012.34 1011.67 1010.94 1011.05 1010.36 1009.75 1009.82 1009.84
1002.87 1004.03 1005.10 1005.94 1007.08 1007.86 1008.50 1010.38 1010.72 1010.50 1011.67 1012.32 1012.12 1012.23 1012.81 1014.03 1014.62 1015.35 1016.02 1016.75 1017.16 1017.55 1017.74 1017.94 1017.77 1017.71 1016.99 1016.24 1014.90 1014.15 1013.83 1013.91 1014.04 1013.87 1013.72 1013.12 1012.60 1011.66 1012.06 1011.37 1010.37 1009.97 1009.66 1009.50
1004.26 1005.29 1006.19 1006.82 1007.71 1008.32 1008.78 1010.40 1010.80 1010.51 1011.42 1012.72 1012.64 1012.39 1012.30 1012.99 1013.64 1014.93 1015.92 1016.01 1016.54 1017.14 1017.86 1018.24 1018.37 1018.14 1017.51 1016.51 1015.61 1014.65 1014.23 1013.67 1014.17 1014.25 1012.96 1012.29 1011.91 1011.80 1011.44 1010.86 1010.43 1009.76 1009.25 1008.64
1005.39 1006.33 1007.11 1007.56 1008.11 1008.58 1009.05 1010.50 1011.10 1011.46 1012.64 1013.32 1013.06 1012.81 1013.09 1013.18 1013.60 1014.07 1015.25 1016.29 1016.21 1016.82 1016.71 1017.75 1018.16 1018.11 1017.18 1016.66 1015.68 1014.93 1013.90 1013.76 1013.96 1013.63 1012.19 1011.81 1011.39 1011.01 1010.31 1010.01 1009.73 1009.20 1008.43 1008.26
1006.72 1007.51 1007.62 1008.05 1008.56 1008.81 1009.13 1010.87 1011.69 1011.72 1013.22 1014.28 1013.92 1012.97 1013.31 1013.02 1013.45 1014.18 1014.68 1015.39 1016.06 1016.54 1017.05 1017.72 1017.91 1017.75 1016.58 1015.82 1015.09 1014.40 1013.91 1013.41 1013.13 1012.41 1011.69 1011.26 1010.48 1009.98 1009.72 1009.16 1008.86 1008.70 1008.16 1007.84
1007.32 1007.48 1007.86 1008.46 1008.91 1009.52 1010.49 1011.53 1012.23 1012.11 1013.38 1014.41 1014.32 1013.65 1013.38 1013.41 1013.77 1014.29 1014.74 1015.41 1016.26 1017.13 1017.80 1018.04 1018.01 1017.16 1016.67 1015.31 1014.72 1013.34 1013.49 1012.94 1012.80 1011.18 1011.15 1010.88 1010.11 1009.68 1009.36 1008.84 1008.29 1008.00 1007.63 1007.05
1007.81 1008.36 1008.86 1009.39 1009.98 1010.57 1011.19 1012.62 1012.98 1012.88 1012.80 1014.23 1015.10 1014.93 1014.28 1013.67 1013.75 1014.32 1014.91 1015.29 1016.12 1016.78 1017.33 1017.39 1016.84 1016.24 1016.19 1014.96 1013.38 1012.40 1011.95 1011.57 1010.98 1010.40 1010.13 1009.93 1009.65 1009.25 1008.80 1008.30 1007.44 1006.86 1006.48 1006.08
1008.78 1009.33 1010.06 1010.53 1010.82 1011.34 1012.39 1012.96 1013.09 1012.92 1013.35 1015.05 1015.83 1015.67 1014.56 1014.13 1014.13 1014.49 1014.80 1015.16 1015.66 1016.16 1016.72 1016.64 1016.21 1015.64 1015.31 1014.41 1012.85 1009.74 1011.28 1010.91 1010.37 1009.90 1009.68 1009.50 1008.98 1008.52 1007.81 1007.45 1006.81 1006.21 1005.41 1005.24
1009.72 1010.22 1010.60 1011.09 1011.43 1011.99 1012.76 1013.24 1013.07 1013.29 1014.39 1015.36 1016.54 1016.46 1015.81 1014.52 1014.80 1015.06 1015.02 1015.33 1015.71 1015.83 1015.73 1015.62 1015.17 1014.81 1014.45 1012.77 1010.10 1009.98 1009.72 1009.48 1009.19 1009.00 1008.90 1008.86 1008.30 1007.62 1007.42 1007.06 1006.70 1006.18 1005.48 1005.25
1010.38 1010.89 1011.29 1011.70 1012.52 1013.55 1014.02 1013.57 1013.53 1013.94 1015.15 1016.41 1017.07 1016.92 1016.41 1015.27 1015.56 1015.58 1015.60 1015.58 1016.06 1015.45 1015.45 1014.84 1014.47 1013.75 1012.44 1009.79 1009.52 1009.38 1009.19 1009.01 1008.56 1008.35 1008.28 1008.11 1007.91 1007.49 1007.44 1007.26 1007.08 1007.05 1006.26 1005.90
1010.98 1011.46 1012.42 1013.71 1014.21 1013.88 1013.98 1014.28 1014.74 1015.10 1016.14 1016.79 1017.19 1017.17 1016.87 1016.36 1016.44 1016.26 1016.53 1016.55 1016.31 1015.81 1014.55 1013.90 1013.30 1011.82 1010.03 1009.65 1009.21 1008.95 1008.88 1008.62 1008.15 1008.21 1008.17 1008.21 1008.20 1008.21 1008.18 1008.00 1007.91 1007.71 1007.25 1006.85
1012.17 1013.28 1014.41 1014.68 1014.17 1014.57 1015.48 1016.54 1016.82 1017.08 1017.16 1017.03 1016.90 1016.93 1016.83 1016.38 1016.77 1016.70 1016.59 1016.25 1016.02 1015.55 1013.99 1013.47 1012.38 1011.20 1009.97 1009.56 1009.45 1009.47 1009.37 1009.15 1009.10 1009.00 1008.93 1008.89 1008.86 1008.82 1008.80 1008.54 1008.31 1008.11 1007.90 1007.61
1012.85 1013.36 1014.30 1014.87 1015.53 1016.64 1017.21 1017.65 1017.51 1017.25 1016.97 1016.63 1016.59 1016.48 1016.45 1016.20 1016.25 1016.53 1016.10 1016.09 1015.86 1014.74 1013.56 1013.16 1011.70 1010.83 1010.05 1009.92 1009.89 1010.12 1010.14 1010.15 1010.17 1010.05 1009.83 1009.73 1009.66 1009.55 1009.37 1009.09 1008.81 1008.56 1008.39 1008.15
1013.37 1014.30 1015.71 1016.53 1017.48 1017.91 1017.97 1017.80 1017.21 1016.94 1016.47 1016.37 1016.29 1016.20 1015.99 1015.77 1015.68 1015.50 1015.43 1015.42 1015.04 1014.07 1013.42 1012.23 1011.10 1010.91 1010.80 1010.61 1010.42 1010.41 1010.57 1010.66 1010.71 1010.55 1010.45 1010.33 1010.11 1010.04 1009.95 1009.61 1009.31 1009.05 1008.69 1008.35
1014.74 1015.95 1017.08 1017.68 1018.00 1017.85 1017.40 1016.87 1016.41 1015.89 1015.76 1015.79 1015.70 1015.49 1015.46 1015.15 1015.16 1014.50 1014.42 1013.79 1013.62 1013.61 1012.77 1011.48 1011.16 1011.18 1011.13 1011.03 1010.94 1010.76 1010.64 1010.57 1010.54 1010.59 1010.72 1010.92 1010.90 1010.63 1010.37 1010.13 1009.79 1009.48 1009.20 1008.89
1015.58 1016.25 1017.32 1017.72 1017.29 1017.10 1016.73 1016.32 1015.99 1015.14 1014.72 1014.82 1014.45 1014.35 1014.56 1014.53 1014.45 1013.69 1013.38 1013.34 1012.85 1012.18 1011.77 1011.58 1011.89 1011.86 1011.71 1011.33 1011.19 1010.97 1010.59 1010.39 1010.38 1010.38 1010.55 1010.77 1010.78 1010.76 1010.68 1010.46 1010.20 1009.98 1009.82 1009.71
1015.61 1016.30 1016.95 1017.31 1017.59 1017.32 1016.89 1016.43 1015.95 1014.84 1014.57 1014.23 1014.03 1013.99 1013.84 1013.86 1013.70 1013.45 1012.88 1012.70 1012.53 1012.55 1012.48 1012.43 1012.35 1012.24 1012.01 1011.74 1011.49 1011.09 1010.66 1010.20 1010.09 1010.18 1010.36 1010.44 1010.67 1010.77 1010.77 1010.72 1010.56 1010.41 1010.36 1010.42
1015.80 1016.30 1016.34 1016.79 1017.16 1017.13 1016.58 1015.85 1015.18 1014.39 1014.39 1014.20 1013.91 1013.58 1012.95 1013.08 1012.98 1012.79 1012.41 1012.90 1013.21 1013.17 1012.96 1012.95 1012.94 1012.59 1011.98 1011.68 1011.41 1010.94 1010.48 1010.29 1010.28 1010.24 1010.30 1010.34 1010.41 1010.60 1010.83 1010.95 1010.96 1010.86 1010.95 1011.01
Wind_Speed
28 26 27 29 33 29 10 4 6 8 10 5 3 7 7 7 5 3 0 3 3 5 5 4 3 6 5 3 2 3 3 3 5 9 7 7 6 6 7 5 9 4 3 8
29 29 32 36 39 34 9 7 3 4 10 9 6 5 11 3 5 4 4 5 2 2 3 3 6 4 1 6 3 3 4 4 7 9 3 5 3 3 3 2 2 3 1 7
32 35 37 39 41 31 9 6 5 2 5 3 10 12 11 9 11 7 4 4 3 6 7 5 4 2 2 4 2 6 4 4 7 13 12 5 17 19 12 3 5 12 17 19
35 37 39 41 42 23 6 4 5 5 12 12 15 14 11 11 8 8 6 8 13 8 7 6 10 5 2 2 3 4 6 13 10 17 17 18 20 19 5 10 15 13 17 20
38 40 43 43 33 19 5 7 7 4 8 15 12 13 10 9 13 8 9 9 1 5 6 6 4 5 3 6 4 5 4 11 4 22 13 15 20 17 8 12 15 16 18 21
39 40 40 36 23 8 4 2 2 7 7 9 9 9 11 14 8 6 8 7 5 6 6 3 3 5 3 5 3 6 5 4 2 20 6 9 13 12 14 13 15 11 13 16
36 35 31 25 16 10 3 2 4 4 5 5 6 11 10 12 12 6 3 4 5 2 1 4 4 4 9 11 14 10 8 8 5 12 6 12 6 3 5 10 16 9 12 13
30 25 25 22 18 8 6 2 5 3 5 6 10 11 7 8 4 4 3 2 1 5 3 1 5 4 4 9 15 17 17 11 7 7 5 6 13 7 4 4 20 5 5 1
28 24 24 22 17 17 5 3 3 4 5 5 7 8 4 4 4 3 2 2 5 5 2 3 5 4 2 5 7 3 14 12 9 3 4 4 4 1 7 4 12 3 3 4
31 30 27 23 18 16 7 3 3 4 4 1 6 5 6 5 3 4 2 4 2 3 3 3 4 4 3 5 5 4 2 3 12 11 8 7 8 14 7 5 4 2 3 7
27 26 24 23 19 17 6 3 3 4 3 2 2 4 6 4 3 5 4 4 2 2 3 3 3 3 1 4 4 4 4 3 4 5 6 11 10 9 5 9 5 6 8 12
24 22 21 20 15 13 7 4 3 2 5 3 1 2 3 4 7 6 2 3 4 4 4 1 2 3 2 2 3 5 4 3 2 3 5 5 8 9 16 16 13 10 6 13
23 22 20 17 15 11 8 4 1 4 4 4 3 1 2 2 4 4 5 2 3 3 4 4 3 4 2 3 5 4 4 3 4 1 6 10 11 14 16 16 12 12 7 14
23 22 20 18 16 15 11 5 1 5 4 4 4 1 2 2 4 3 4 5 3 4 3 3 3 3 5 5 7 8 6 3 4 11 11 12 14 12 9 12 8 13 14 16
22 21 19 19 20 22 11 4 3 3 5 4 2 5 3 3 5 6 4 6 4 2 2 2 4 3 3 7 6 12 4 10 8 16 15 10 13 11 16 13 17 14 15 16
21 20 18 17 15 9 5 5 4 3 3 5 2 3 3 3 3 5 6 5 3 4 5 4 3 4 2 4 5 6 12 15 18 19 15 14 14 14 14 21 23 18 14 14
21 20 18 15 13 5 4 5 4 1 3 4 3 4 4 3 2 1 2 3 3 4 3 2 4 5 4 5 17 22 14 14 15 15 15 18 20 15 14 13 18 19 14 10
20 18 17 15 15 9 6 4 5 3 5 4 3 3 4 3 2 2 1 2 1 2 4 1 4 2 4 9 14 10 11 15 18 18 16 16 18 16 13 10 8 9 7 6
19 15 11 6 6 4 1 7 10 4 5 4 2 3 3 4 2 1 3 2 2 1 2 4 5 4 9 14 8 7 8 6 8 9 8 9 12 8 5 6 6 6 8 4
11 7 6 5 3 3 2 8 5 6 4 3 1 1 3 2 2 3 3 1 3 3 6 2 4 6 12 11 12 9 6 8 8 6 6 3 3 3 5 4 4 5 6 4
5 4 3 3 5 4 4 3 4 2 2 1 3 4 2 2 2 3 3 3 2 2 5 4 3 4 3 2 7 7 8 8 8 6 4 4 5 6 8 9 9 7 7 4
4 5 4 3 5 4 5 1 1 1 2 1 3 3 3 2 2 1 3 3 2 6 2 2 4 0 4 2 4 6 6 7 7 7 7 7 7 6 6 7 8 8 5 5
4 6 5 5 1 5 4 2 1 1 2 2 1 1 1 2 3 4 2 3 6 2 3 5 1 1 3 5 4 4 4 4 4 6 6 6 7 7 6 6 5 5 4 3
4 4 4 5 2 4 4 3 4 4 3 1 4 4 3 3 3 4 4 5 3 3 2 2 3 7 6 4 4 3 4 3 3 3 3 5 5 5 5 5 4 3 2 3
3 4 3 4 4 2 3 2 2 3 2 3 3 3 3 4 5 3 2 2 5 4 1 2 3 5 6 7 8 8 6 4 4 3 3 4 5 4 4 3 3 3 3 5
2 2 2 2 3 4 3 1 3 2 1 2 2 2 3 5 3 3 6 3 1 2 2 3 5 7 6 7 9 9 8 6 4 4 4 4 4 4 3 2 2 2 3 5
1 3 1 3 2 5 4 4 4 2 1 2 2 3 2 2 4 4 1 2 1 3 4 3 6 9 9 8 10 10 7 5 4 4 4 4 2 3 3 2 1 4 5 5
Wind_Direction
207 198 182 165 158 144 144 139 152 160 151 122 190 198 185 209 146 201 160 350 261 210 181 229 223 218 232 94 37 31 333 272 264 216 199 190 203 212 184 199 263 239 168 261
207 189 172 169 161 157 133 143 104 150 147 194 189 189 205 172 231 209 191 233 252 337 200 260 213 233 0 89 70 78 11 344 326 308 34 12 320 2 84 17 236 248 259 270
196 183 176 170 165 168 114 132 138 203 172 200 178 175 186 182 197 201 216 254 261 270 260 218 261 216 334 338 133 192 156 208 200 261 270 276 282 276 279 207 234 266 257 273
191 183 174 167 168 174 105 140 176 193 178 195 180 162 171 178 183 224 224 251 237 228 251 233 238 242 299 262 240 189 167 259 248 263 273 275 270 272 250 243 251 250 268 268
182 174 167 164 166 150 84 139 151 143 153 154 140 162 174 162 197 190 203 222 314 224 216 209 269 292 212 215 237 200 192 262 265 276 275 267 272 275 269 264 263 258 253 261
163 158 157 156 149 120 100 183 95 107 141 144 148 170 151 187 195 230 231 269 297 278 284 305 255 231 216 240 207 211 199 208 205 269 276 298 268 244 248 258 263 257 268 264
145 144 147 144 133 62 92 70 86 93 114 127 139 155 164 182 189 194 98 123 165 186 2 294 282 245 236 230 235 211 221 220 228 268 241 236 273 235 245 241 260 264 255 265
127 135 137 119 111 140 97 52 79 102 105 130 144 151 152 120 119 148 192 216 293 140 86 319 308 304 285 234 229 221 211 222 246 251 229 282 289 266 236 284 286 301 234 210
133 141 150 133 133 104 80 60 82 97 116 194 127 133 148 137 135 132 196 99 129 83 120 167 217 239 277 290 312 236 219 220 223 223 257 257 241 343 355 18 276 294 266 229
120 116 119 123 114 109 94 62 43 90 105 129 132 143 165 140 126 131 129 158 140 122 165 186 202 237 250 246 250 246 152 198 216 235 249 269 355 337 310 256 289 264 264 292
114 114 113 113 114 117 94 85 333 123 101 109 141 138 129 113 123 142 188 71 319 129 161 167 196 212 304 280 270 272 214 195 214 219 239 255 4 347 309 335 259 267 269 273
113 115 119 114 112 115 105 90 332 47 83 152 356 73 93 150 168 132 186 171 158 158 94 141 120 230 237 317 272 304 252 176 319 270 250 232 205 207 253 262 268 277 260 276
109 109 109 101 96 85 99 104 73 58 76 16 55 223 243 75 149 155 123 318 198 181 174 157 172 233 177 220 222 238 259 153 213 335 259 251 267 253 255 263 255 259 251 269
111 111 104 97 98 94 84 84 349 78 87 108 269 37 240 128 128 133 139 151 68 105 95 141 173 173 205 222 243 233 210 269 248 260 280 276 274 263 266 290 244 261 269 263
105 101 95 92 93 89 81 76 28 84 122 166 281 323 294 238 146 176 156 155 136 133 73 116 225 238 272 254 257 259 204 242 245 258 269 263 265 276 301 293 294 289 280 279
102 98 93 88 91 92 64 46 346 352 82 83 55 294 289 321 154 178 173 177 138 148 156 213 219 225 180 260 265 227 225 236 238 254 268 268 270 274 279 284 284 281 274 258
97 95 92 84 80 70 90 163 195 71 74 78 21 351 306 306 131 82 133 147 182 154 192 212 216 228 222 257 267 266 260 270 272 273 281 287 283 279 275 273 279 281 263 254
98 95 87 79 79 77 38 353 54 76 84 64 83 287 341 340 4 330 117 147 105 214 207 282 226 198 197 249 258 264 243 239 247 253 255 248 260 274 267 271 277 295 295 255
98 90 81 57 40 48 285 92 69 54 108 115 110 131 251 351 6 273 357 71 10 282 215 246 167 184 226 239 269 260 253 229 249 255 257 265 267 287 339 332 321 309 299 276
73 51 47 27 336 243 10 8 29 18 349 50 113 14 273 67 7 311 35 335 227 252 235 175 219 246 262 285 276 295 341 304 274 261 282 334 290 332 325 320 326 329 335 359
43 59 74 240 340 51 33 35 71 324 17 169 220 182 234 332 113 228 193 219 214 245 258 160 254 265 274 358 45 24 12 17 14 8 3 345 320 316 302 301 302 317 332 341
155 124 98 44 41 35 78 330 324 86 249 209 172 196 200 245 148 249 270 194 69 251 196 225 252 169 349 353 48 35 22 7 345 345 338 334 316 309 305 304 300 296 307 304
39 49 58 69 35 59 124 195 253 274 210 234 190 291 205 259 226 217 162 162 234 0 228 235 275 73 31 357 355 4 5 347 330 335 331 325 324 333 311 305 302 300 299 311
77 98 95 133 220 235 194 189 183 217 154 280 258 239 218 197 231 215 215 230 133 262 245 230 35 18 354 327 309 278 295 274 284 289 317 308 296 302 316 312 308 314 343 64
95 86 182 203 224 257 232 235 15 255 204 282 268 206 193 180 240 254 213 253 241 219 308 58 14 342 324 332 328 309 290 278 255 239 233 261 281 285 289 318 340 34 32 56
74 127 55 264 54 295 339 234 252 252 278 278 195 203 198 215 208 207 222 236 276 11 13 353 340 332 319 317 304 293 297 269 251 241 233 227 240 250 272 329 1 49 82 90
342 276 159 151 164 210 226 176 227 197 218 241 294 278 268 199 218 218 22 93 39 319 323 331 320 315 318 327 324 317 314 315 276 254 239 241 214 176 199 186 17 79 77 79